Weather in Orilka

Ukraine / Dnipropetrovsk Region     48°56′34″N   35°41′19″E
temp.,
°C
wind,
m/s
gust,
m/s
humid.,
%
clouds,
%
prec.,
mm/h
press.,
hPa
HPBL,
m
14 june, mon
mon1400:00+16se338832 0.6 101041
03:00+15sse36935 1.4 1010101
06:00+16se359172 0.0 1011111
09:00+21se457386 0.0 1012575
12:00+24se4559100 0.0 10121470
15:00+25se4452100 0.0 10132014
18:00+25sse236299 0.0 10121224
21:00+20ne227414 0.0 101214
15 june, tue
tue1500:00+18ne337333 0.0 101345
03:00+17ne33880 0.0 101238
06:00+17ne36890 0.0 1012148
09:00+22ne34713 0.4 1012361
12:00+25ne33550 1.8 10111487
15:00+26ene3352100 1.8 10102125
18:00+23nne3473100 0.1 100987
21:00+20ene338042 0.3 100927
16 june, wed
wed1600:00+19s228498 0.0 100930
03:00+17se1288100 0.1 101012
06:00+18se23882 0.0 101082
09:00+22sse347623 1.3 1011298
12:00+25ese235925 0.8 10121153
15:00+26ene3460100 1.1 10111457
18:00+24ese4671100 1.9 1012403
21:00+19ese2289100 3.3 101339
17 june, thu
thu1700:00+18e41290100 0.6 1013229
03:00+18ene41094100 0.6 1014308
06:00+19ne51193100 0.0 1014300
09:00+23ene71178100 0.0 1016680
12:00+25ene7970100 1.6 1016985
15:00+25e5872100 7.7 10171260
18:00+23ene61081100 4.3 1018742
21:00+20ese2793100 7.6 1020187
18 june, fri
fri1800:00+19ene6138999 0.1 1020467
03:00+17ene61485100 0.1 1021486
06:00+16ene6138397 0.0 1022407
09:00+20e811730 0.0 1023670
12:00+23e78620 0.0 10231245
15:00+24e785734 0.0 10231635
18:00+22ene696574 0.0 10231041
21:00+17ene4118475 0.0 1024272